Liberia, Costa Rica

3:01 AM CST on February 26, 2017 (GMT -0600)
Daniel Oduber Quiros International

Weather History for MRLB - April, 2014

Change the Weather History Date:

Friday, April 11, 2014

  Actual Average Record
Temperature  
Mean Temperature 87 °F -  
Max Temperature 94 °F 92 °F 98 °F (2013)
Min Temperature 80 °F 76 °F 67 °F (2012)
Cooling Degree Days 22    
Growing Degree Days 37 (Base 50)    
Moisture  
Dew Point 65 °F    
Average Humidity 44    
Maximum Humidity 58    
Minimum Humidity 30    
Precipitation  
Precipitation 0.00 in - - ()
Sea Level Pressure  
Sea Level Pressure 29.81 in    
Wind  
Wind Speed 21 mph ()    
Max Wind Speed 29 mph    
Max Gust Speed 43 mph    
Visibility 8.4 miles    
Events      
Averages and records for this station are not official NWS values.
T = Trace of Precipitation, MM = Missing Value Source: Averaged Metar Reports

Daily Weather History Graph

Daily Weather History Graph

Search for Another Location

Airport or City:

Trip Planner

Search our weather history database for the weather conditions in past years. The results will help you decide how hot, cold, wet, or windy it might be!

Date:

Astronomy

Apr. 11, 2014 Rise Set
Actual Time 5:33 AM CST 5:53 PM CST
Civil Twilight 5:12 AM CST 6:14 PM CST
Nautical Twilight 4:47 AM CST 6:39 PM CST
Astronomical Twilight 4:22 AM CST 7:04 PM CST
Moon 3:06 PM CST (4/11) 2:50 AM CST (4/11)
Length of Visible Light 13h 02m
Length of Day
12h 19m
Waxing Gibbous, 87% of the Moon is Illuminated
Apr 11
Waxing Gibbous
Apr 15
Full
Apr 22
Last Quarter
Apr 29
New
May 6
First Quarter

Hourly Weather History & Observations

Time (CST) Temp. Heat Index Dew Point Humidity Pressure Visibility Wind Dir Wind Speed Gust Speed Precip Events Conditions
6:00 AM 81 °F - 64 °F 48% 29.84 in 12 mi ENE 23.0 mph - -   Clear
6:00 AM 80.6 °F 82.3 °F 64.4 °F 58% 29.81 in - ENE 23.0 mph - N/A   Clear
7:00 AM 84.2 °F 85.6 °F 64.4 °F 51% 29.85 in - East 19.6 mph 31.1 mph N/A   Clear
8:00 AM 86.0 °F 88.2 °F 66.2 °F 51% 29.86 in - East 20.7 mph - N/A   Clear
9:00 AM 89 °F - 66 °F 37% 29.89 in 12 mi ENE 24.2 mph - -   Scattered Clouds
9:00 AM 89.6 °F 92.2 °F 66.2 °F 46% 29.87 in 6.2 mi ENE 24.2 mph 35.7 mph N/A   Partly Cloudy
10:00 AM 91.4 °F 94.0 °F 66.2 °F 43% 29.87 in 6.2 mi ENE 24.2 mph - N/A   Partly Cloudy
11:00 AM 91.4 °F 94.0 °F 66.2 °F 43% 29.86 in 6.2 mi ENE 26.5 mph - N/A   Partly Cloudy
12:00 PM 92 °F - 64 °F 30% 29.86 in 12 mi East 21.9 mph - -   Scattered Clouds
12:00 PM 91.4 °F 93.2 °F 64.4 °F 41% 29.83 in 6.2 mi East 21.9 mph - N/A   Partly Cloudy
1:00 PM 93.2 °F 94.9 °F 64.4 °F 38% 29.79 in 6.2 mi ENE 25.3 mph - N/A   Partly Cloudy
2:00 PM 93.2 °F 96.2 °F 66.2 °F 41% 29.77 in 6.2 mi ENE 28.8 mph 40.3 mph N/A   Scattered Clouds
3:00 PM 92 °F - 65 °F 31% 29.75 in 12 mi ENE 24.2 mph - -   Scattered Clouds
3:00 PM 91.4 °F 93.2 °F 64.4 °F 41% 29.74 in 6.2 mi ENE 24.2 mph 35.7 mph N/A   Scattered Clouds
4:00 PM 89.6 °F 91.1 °F 64.4 °F 43% 29.75 in 6.2 mi ENE 28.8 mph 42.6 mph N/A   Scattered Clouds
5:00 PM 87.8 °F 88.5 °F 62.6 °F 43% 29.76 in - ENE 25.3 mph 36.8 mph N/A   Clear
6:00 PM 84 °F - 64 °F 42% 29.79 in 12 mi ENE 26.5 mph - -   Clear
6:00 PM 84.2 °F 85.6 °F 64.4 °F 51% 29.78 in - ENE 26.5 mph 38.0 mph N/A   Clear
7:00 PM 82.4 °F 83.4 °F 62.6 °F 51% 29.80 in - East 19.6 mph - N/A   Clear
8:00 PM 82.4 °F 83.9 °F 64.4 °F 54% 29.82 in - East 23.0 mph 34.5 mph N/A   Clear